15min,AgWx,beryljct,423,13SEP2018:00:00:00,64.6,13.01,56.3,56.6,56.8,60.0,55.5,32,34,29,0.517,27.6,28.7,26.8,1.425,1.2,97,5.6,4.0,-0.00017,-0.00021,69.7,71.2,17,0,0,53.6,17.30,0.00,0.00
15min,AgWx,beryljct,423,13SEP2018:00:15:00,61.8,13.01,57.4,59.1,56.9,59.1,55.9,33,39,27,0.460,28.2,31.3,25.1,3.244,1.3,68,43,3.2,-0.00015,-0.00018,69.5,71.2,17,0,0,52.0,17.30,0.00,0.00
15min,AgWx,beryljct,423,13SEP2018:00:30:00,59.7,12.99,55.9,54.8,56.1,59.2,54.4,33,38,27,0.505,27.4,30.2,25.0,2.17,1.5,335,56,4.4,-0.00012,-0.00013,69.3,71.1,17,0,0,52.4,17.30,0.00,0.00
15min,AgWx,beryljct,423,13SEP2018:00:45:00,58.1,13,57.2,58.5,56.5,58.5,54.3,31,36,28,0.464,26.4,27.7,24.8,1.381,1.1,104,39,4.5,-0.00018,-0.00024,69.1,70.6,17,0,0,52.2,17.31,0.00,0.00
15min,AgWx,beryljct,423,13SEP2018:01:00:00,58.2,12.99,63.4,63.5,62.5,66.8,57.2,24,31,20,0.467,25.2,26.8,24.1,4.472,5.7,181,32,11.6,0.00051,0.00072,68.9,70.1,16,0,0,58.8,17.30,0.00,0.00
15min,AgWx,beryljct,423,13SEP2018:01:15:00,60.8,12.96,68.3,68.9,67.5,68.9,63.6,19,23,18,0.436,24.3,25.7,23.5,12.85,11.0,199,8.7,16.2,0.00107,0.00137,68.7,70.9,17,0,0,65.0,17.30,0.00,0.00
15min,AgWx,beryljct,423,13SEP2018:01:30:00,63.2,12.97,69.0,69.2,68.9,69.4,68.3,18,19,18,0.440,24.2,25.1,23.4,11.57,12.2,200,9.5,20.3,0.00121,0.00152,68.4,70.4,16,0,0,66.4,17.30,0.00,0.00
15min,AgWx,beryljct,423,13SEP2018:01:45:00,64.9,12.95,69.1,69.2,69.1,69.3,68.7,18,19,18,0.435,24.3,25.1,23.7,16.11,13.0,202,9.1,16.8,0.00126,0.00157,68.2,70.7,17,0,0,66.6,17.30,0.00,0.00
15min,AgWx,beryljct,423,13SEP2018:02:00:00,65.8,12.95,68.1,67.2,68.2,69.3,67.2,19,20,18,0.460,24.5,25.4,23.6,6.84,10.1,193,7.2,15.8,0.00105,0.00135,68.1,70.2,16,0,0,65.5,17.30,0.00,0.00
15min,AgWx,beryljct,423,13SEP2018:02:15:00,65.6,12.95,66.9,66.9,66.8,67.2,66.5,20,21,20,0.456,24.8,25.6,24.1,10.41,9.2,189,6.6,14.4,0.00092,0.00121,67.9,70.6,17,0,0,64.1,17.30,0.00,0.00
15min,AgWx,beryljct,423,13SEP2018:02:30:00,65.5,12.94,67.3,67.1,67.2,67.7,66.9,20,21,19,0.455,24.9,25.6,24.1,14.01,10.5,193,8.9,16.6,0.00103,0.00132,67.8,69.6,16,0,0,64.6,17.30,0.00,0.00
15min,AgWx,beryljct,423,13SEP2018:02:45:00,65.7,12.95,67.9,67.7,67.7,68.2,67.2,19,20,19,0.449,24.6,25.5,24.0,11.97,11.8,198,8.3,16.8,0.00114,0.00144,67.6,70.0,17,0,0,65.2,17.30,0.00,0.00
15min,AgWx,beryljct,423,13SEP2018:03:00:00,66.0,12.94,67.9,67.9,67.8,68.1,67.4,19,20,19,0.461,24.6,25.1,23.9,12.06,12.7,202,9.4,18.4,0.00119,0.00149,67.5,69.9,17,0,0,65.3,17.30,0.00,0.00
15min,AgWx,beryljct,423,13SEP2018:03:15:00,66.2,12.93,68.2,68.2,68.1,68.7,67.6,19,20,19,0.457,24.9,25.6,24.3,20.34,15.4,202,7.5,24.0,0.00133,0.00162,67.4,69.8,17,0,0,65.7,17.30,0.00,0.00
15min,AgWx,beryljct,423,13SEP2018:03:30:00,66.4,12.91,67.6,67.2,67.7,68.5,67.1,20,21,19,0.467,25.0,25.8,24.3,13.81,14.0,200,8.4,21.6,0.00126,0.00155,67.3,69.7,17,0,0,65.2,17.30,0.00,0.00
15min,AgWx,beryljct,423,13SEP2018:03:45:00,66.2,12.92,67.1,66.8,67.0,67.4,66.6,20,21,20,0.465,25.2,25.8,24.4,16.11,13.6,203,7.8,20.0,0.00120,0.00148,67.1,69.2,16,0,0,64.5,17.30,0.00,0.00
15min,AgWx,beryljct,423,13SEP2018:04:00:00,66.1,12.92,67.1,66.9,67.0,67.3,66.6,20,21,20,0.464,25.0,25.6,24.2,12.8,16.0,206,8.9,24.7,0.00131,0.00158,67.0,69.6,17,0,0,64.7,17.30,0.00,0.00
15min,AgWx,beryljct,423,13SEP2018:04:15:00,65.8,12.91,66.3,65.7,66.4,66.9,65.7,20,21,20,0.455,24.6,25.3,23.9,10.26,12.8,203,9.4,20.5,0.00115,0.00142,67.0,69.1,16,0,0,63.8,17.30,0.00,0.00
15min,AgWx,beryljct,423,13SEP2018:04:30:00,65.5,12.91,66.0,65.3,65.9,66.5,65.2,21,22,20,0.447,24.5,25.5,23.6,12.25,13.2,202,8.3,20.0,0.00115,0.00142,66.8,69.8,17,0,0,63.4,17.30,0.00,0.00
15min,AgWx,beryljct,423,13SEP2018:04:45:00,64.9,12.9,64.9,64.4,64.9,65.4,64.4,22,23,21,0.463,24.8,25.6,24.3,9.19,10.7,198,8.6,15.2,0.00097,0.00124,66.7,68.5,16,0,0,62.2,17.30,0.00,0.00
15min,AgWx,beryljct,423,13SEP2018:05:00:00,64.2,12.88,64.4,63.9,64.3,64.7,63.7,23,24,22,0.474,25.5,26.4,24.7,13.57,10.4,201,7.5,14.4,0.00092,0.00117,66.6,68.4,16,0,0,61.6,17.30,0.00,0.00
15min,AgWx,beryljct,423,13SEP2018:05:15:00,63.7,12.9,63.7,62.9,63.7,64.7,62.6,24,26,22,0.472,26.0,27.3,25.0,12.25,9.8,202,8.3,15.9,0.00086,0.00111,66.5,68.3,16,0,0,61.0,17.30,0.00,0.00
15min,AgWx,beryljct,423,13SEP2018:05:30:00,63.0,12.9,63.5,63.5,63.3,63.9,62.7,24,26,23,0.485,26.4,27.1,25.6,9.84,10.4,204,8.6,14.4,0.00189,0.00331,66.4,69.5,17,0,0,60.6,17.30,0.00,0.00
15min,AgWx,beryljct,423,13SEP2018:05:45:00,62.6,12.87,62.8,62.2,62.8,63.6,62.1,25,26,24,0.489,26.7,27.5,25.9,11,9.4,202,7.7,13.8,0.00172,0.00302,66.3,68.2,16,0,0,60.0,17.30,0.00,0.00
15min,AgWx,beryljct,423,13SEP2018:06:00:00,61.9,12.87,61.1,59.6,61.4,62.7,59.6,27,30,24,0.518,26.9,28.1,25.7,6.204,8.1,208,7.7,13.4,0.00147,0.00258,66.2,68.6,16,0,0,58.5,17.30,0.00,0.00
15min,AgWx,beryljct,423,13SEP2018:06:15:00,60.7,12.88,59.9,60.3,59.7,60.3,59.2,28,30,26,0.484,26.8,27.7,25.5,8.44,8.0,215,6.0,10.8,0.00139,0.00242,66.1,68.5,16,3,0,57.0,17.31,0.00,0.00
15min,AgWx,beryljct,423,13SEP2018:06:30:00,60.2,12.88,60.6,60.0,60.4,61.0,59.9,27,29,26,0.512,26.7,28.0,25.4,8.68,9.2,221,8.1,14.3,0.00166,0.00285,66.0,68.8,16,16,0,58.9,17.31,0.00,0.00
15min,AgWx,beryljct,423,13SEP2018:06:45:00,60.2,12.91,61.1,61.4,60.8,61.4,60.0,29,31,27,0.533,28.2,29.9,26.9,10.54,9.7,230,8.5,14.0,0.00192,0.00315,65.9,68.8,16,63,0,63.2,17.31,0.00,0.00
15min,AgWx,beryljct,423,13SEP2018:07:00:00,60.9,12.9,62.0,61.8,61.8,62.4,61.1,29,31,27,0.569,29.2,30.6,27.6,9.6,9.7,221,9.3,12.9,0.00208,0.00334,65.7,69.1,17,103,0,66.7,17.31,0.00,0.00
15min,AgWx,beryljct,423,13SEP2018:07:15:00,61.8,12.95,62.6,62.9,62.4,63.0,61.8,29,31,27,0.569,29.7,31.2,28.1,7.322,8.9,218,9.0,11.9,0.00218,0.00339,65.6,69.0,17,147,0,69.6,17.30,0.00,0.00
15min,AgWx,beryljct,423,13SEP2018:07:30:00,62.8,13.05,63.4,64.0,63.2,64.4,62.3,29,33,25,0.554,30.7,33.0,27.7,11.14,8.6,215,9.3,12.9,0.00235,0.00354,65.5,69.0,17,195,0,72.5,17.30,0.00,0.00
15min,AgWx,beryljct,423,13SEP2018:07:45:00,64.1,13.19,65.1,65.4,64.9,65.7,64.2,26,30,23,0.551,29.4,32.5,27.3,14.25,11.5,209,7.9,16.6,0.00305,0.00464,65.4,68.5,17,245,0,74.8,17.30,0.00,0.00
15min,AgWx,beryljct,423,13SEP2018:08:00:00,65.5,13.46,66.2,65.9,66.0,66.6,65.4,25,29,23,0.589,29.5,32.7,27.3,12.45,12.0,204,9.9,18.4,0.00344,0.00515,65.3,68.8,17,298,0,76.6,17.30,0.00,0.00
15min,AgWx,beryljct,423,13SEP2018:08:15:00,66.9,13.7,66.8,66.9,66.7,67.3,65.9,25,27,22,0.586,29.6,31.3,27.0,10.26,12.4,206,11,17.5,0.00377,0.00557,65.2,68.7,17,350,0,78.1,17.30,0.00,0.00
15min,AgWx,beryljct,423,13SEP2018:08:30:00,68.0,14.19,67.5,68.0,67.4,68.0,66.7,24,28,21,0.510,29.6,33.0,26.9,13.72,13.6,204,11,18.1,0.00417,0.00611,65.2,68.7,17,401,0,79.1,17.30,0.00,0.00
15min,AgWx,beryljct,423,13SEP2018:08:45:00,69.2,14.14,68.2,68.3,68.2,68.6,67.9,24,26,22,0.549,30.2,32.8,27.3,17.3,12.9,207,12,19.4,0.00439,0.00631,65.2,68.6,17,451,0,80.9,17.30,0.00,0.00
15min,AgWx,beryljct,423,13SEP2018:09:00:00,70.0,14.14,68.6,68.8,68.5,68.9,68.1,23,26,21,0.522,29.1,32.5,27.2,17.49,16.3,209,8.5,22.2,0.00499,0.00729,65.2,68.5,17,499,0,80.7,17.30,0.00,0.00
15min,AgWx,beryljct,423,13SEP2018:09:15:00,70.8,14.14,69.1,69.5,69.1,69.7,68.7,22,25,20,0.570,29.1,31.5,25.8,14.29,15.8,210,9.1,22.2,0.00523,0.00755,65.3,68.5,17,545,0,81.6,17.30,0.00,0.00
15min,AgWx,beryljct,423,13SEP2018:09:30:00,71.7,14.15,70.2,70.4,70.2,70.6,69.5,21,24,19,0.520,28.9,31.9,26.1,14.62,14.8,202,12,19.4,0.00548,0.00777,65.3,68.4,17,591,0,83.7,17.30,0.00,0.00
15min,AgWx,beryljct,423,13SEP2018:09:45:00,72.5,14.06,70.5,70.4,70.5,70.9,70.2,22,24,19,0.571,29.3,32.3,26.1,16.02,14.8,205,14,19.3,0.00571,0.00803,65.5,68.3,17,633,0,84.1,17.30,0.00,0.00
15min,AgWx,beryljct,423,13SEP2018:10:00:00,73.1,14.14,70.5,70.8,70.5,71.0,70.1,22,26,20,0.550,29.8,33.7,27.6,14.58,15.2,213,11,20.4,0.00591,0.00826,65.6,68.3,17,672,0,84.0,17.30,0.00,0.00
15min,AgWx,beryljct,423,13SEP2018:10:15:00,73.7,14.07,71.8,72.1,71.7,72.8,70.9,22,28,18,0.544,30.3,36.4,26.8,12.74,13.3,203,14,18.6,0.00605,0.00828,65.8,68.3,17,708,0,86.7,17.30,0.00,0.00
15min,AgWx,beryljct,423,13SEP2018:10:30:00,74.2,14.01,71.5,71.6,71.7,72.3,71.2,22,25,19,0.541,30.5,34.4,27.7,12.34,13.8,209,9.7,20.5,0.00626,0.00855,66.0,68.2,17,743,0,87.2,17.30,0.00,0.00
15min,AgWx,beryljct,423,13SEP2018:10:45:00,74.6,13.63,72.0,72.1,72.1,72.9,71.6,22,26,19,0.608,31.2,34.8,27.8,12.36,13.3,209,10,19.7,0.00640,0.00865,66.3,68.2,17,773,0,87.6,17.29,0.00,0.00
15min,AgWx,beryljct,423,13SEP2018:11:00:00,74.9,13.64,72.6,74.3,72.6,74.3,71.9,21,28,16,0.579,30.2,37.0,25.2,10.37,12.6,206,17,21.0,0.00655,0.00878,66.6,68.2,17,800,0,88.0,17.29,0.00,0.00
15min,AgWx,beryljct,423,13SEP2018:11:15:00,75.9,13.61,74.5,74.9,74.5,75.5,73.2,17,21,15,0.470,27.4,31.2,23.5,12.56,13.5,185,14,20.5,0.00702,0.00951,66.9,68.2,17,824,0,89.2,17.29,0.00,0.00
15min,AgWx,beryljct,423,13SEP2018:11:30:00,77.1,13.59,75.2,75.2,75.2,75.9,74.3,16,22,14,0.533,26.4,32.5,22.5,10.11,13.4,182,14,20.6,0.00720,0.00975,67.3,68.2,17,842,0,89.5,17.29,0.00,0.00
15min,AgWx,beryljct,423,13SEP2018:11:45:00,78.0,13.56,75.2,75.6,75.3,76.7,73.8,18,21,15,0.451,29.0,33.4,24.6,19.8,12.8,191,17,21.0,0.00715,0.00957,67.7,68.2,17,857,0,90.4,17.29,0.00,0.00
15min,AgWx,beryljct,423,13SEP2018:12:00:00,78.4,13.56,75.3,76.2,75.3,76.2,74.2,17,22,14,0.456,27.4,34.0,23.0,19.58,13.7,190,19,23.7,0.00732,0.00989,68.1,68.3,17,868,0,89.6,17.29,0.00,0.00
15min,AgWx,beryljct,423,13SEP2018:12:15:00,78.8,13.56,76.5,76.7,76.6,77.5,75.5,15,22,13,0.415,25.3,33.9,21.6,12.63,16.6,183,14,24.5,0.00784,0.01087,68.6,68.3,17,878,0,88.6,17.29,0.00,0.00
15min,AgWx,beryljct,423,13SEP2018:12:30:00,79.2,13.53,76.8,76.2,77.0,78.0,75.9,15,19,13,0.528,26.0,31.4,21.9,12.3,15.8,187,13,23.0,0.00781,0.01077,69.0,68.4,17,881,0,89.2,17.29,0.00,0.00
15min,AgWx,beryljct,423,13SEP2018:12:45:00,79.3,13.54,76.7,77.4,76.7,77.7,75.9,16,20,13,0.403,27.2,32.0,21.9,17.58,15.9,191,11,25.2,0.00776,0.01068,69.5,68.5,17,881,0,88.9,17.29,0.00,0.00
15min,AgWx,beryljct,423,13SEP2018:13:00:00,79.6,13.51,77.3,77.7,77.4,78.6,76.1,15,20,12,0.373,25.8,32.8,20.1,14.51,16.0,190,14,23.0,0.00786,0.01086,69.9,68.6,17,876,0,88.6,17.29,0.00,0.00
15min,AgWx,beryljct,423,13SEP2018:13:15:00,80.4,13.51,78.7,79.4,78.6,79.9,77.4,13,16,11,0.362,23.0,28.4,18.9,18.35,16.7,180,13,22.3,0.00808,0.01128,70.4,68.7,17,868,0,88.7,17.29,0.00,0.00
15min,AgWx,beryljct,423,13SEP2018:13:30:00,81.2,13.48,78.4,78.9,78.6,79.4,77.9,13,17,11,0.508,23.9,30.1,19.0,12.76,15.6,183,13,23.8,0.00788,0.01094,70.9,68.8,17,855,0,88.5,17.29,0.00,0.00
15min,AgWx,beryljct,423,13SEP2018:13:45:00,81.7,13.48,78.6,77.9,78.8,80.0,77.4,13,17,10,0.416,23.2,29.6,18.4,19.29,16.9,188,13,25.9,0.00796,0.01119,71.3,68.9,17,841,0,88.0,17.29,0.00,0.00
15min,AgWx,beryljct,423,13SEP2018:14:00:00,81.9,13.46,78.4,78.6,78.5,79.8,77.7,13,17,10,0.410,23.4,29.0,18.3,13.83,18.1,193,17,27.0,0.00796,0.01132,71.8,69.1,17,821,0,86.7,17.29,0.00,0.00
15min,AgWx,beryljct,423,13SEP2018:14:15:00,81.9,13.59,78.6,79.4,78.7,79.6,78.0,12,16,9.4,0.377,21.5,27.9,16.2,14.62,19.0,190,13,27.2,0.00797,0.01145,72.1,69.2,17,798,0,86.2,17.29,0.00,0.00
15min,AgWx,beryljct,423,13SEP2018:14:30:00,82.1,13.49,78.5,78.1,78.8,79.9,78.0,13,16,10,0.405,23.6,29.2,18.7,15.35,17.0,191,11,24.3,0.00757,0.01078,72.4,69.4,17,770,0,86.0,17.29,0.00,0.00
15min,AgWx,beryljct,423,13SEP2018:14:45:00,81.9,13.47,77.9,78.2,78.0,78.7,77.2,14,17,11,0.445,24.4,29.2,19.0,13.04,17.5,195,12,25.1,0.00721,0.01041,72.5,69.5,17,714,0,84.6,17.29,0.00,0.00
15min,AgWx,beryljct,423,13SEP2018:15:00:00,81.9,13.47,78.3,78.0,78.5,79.2,77.8,13,17,11,0.413,23.3,29.2,19.7,18.68,18.5,195,9.7,25.6,0.00730,0.01064,72.6,69.7,17,698,0,83.8,17.29,0.00,0.00
15min,AgWx,beryljct,423,13SEP2018:15:15:00,81.8,13.49,78.5,78.4,78.6,79.0,78.1,12,15,11,0.398,22.1,27.4,19.3,16.02,19.6,194,10,26.0,0.00732,0.01082,72.7,69.8,17,671,0,83.1,17.29,0.00,0.00
15min,AgWx,beryljct,423,13SEP2018:15:30:00,81.8,13.47,78.9,79.2,79.0,79.9,78.2,11,14,8.5,0.335,20.5,25.2,14.8,27.71,19.3,189,10,27.7,0.00712,0.01061,72.7,69.9,17,630,0,82.6,17.29,0.00,0.00
15min,AgWx,beryljct,423,13SEP2018:15:45:00,81.9,13.47,79.2,79.5,79.2,80.2,78.7,10,13,8.3,0.315,18.1,24.2,14.5,26.39,20.6,188,11,26.6,0.00709,0.01080,72.7,70.1,17,579,0,81.9,17.29,0.00,0.00
15min,AgWx,beryljct,423,13SEP2018:16:00:00,82.1,13.46,79.7,79.9,79.8,80.2,79.1,9.0,11,7.9,0.289,16.0,19.8,13.0,23.28,19.4,178,9.9,25.0,0.00685,0.01047,72.8,70.2,17,547,0,81.8,17.29,0.00,0.00
15min,AgWx,beryljct,423,13SEP2018:16:15:00,82.2,13.44,79.6,79.3,79.7,80.2,78.9,8.7,12,7.7,0.306,14.9,22.1,12.4,23.43,21.2,179,11,29.4,0.00686,0.01069,72.9,70.3,17,502,0,81.0,17.29,0.00,0.00
15min,AgWx,beryljct,423,13SEP2018:16:30:00,81.9,13.44,78.4,78.2,78.5,79.8,77.9,10,12,8.1,0.356,17.9,21.8,13.3,12.25,18.9,194,11,25.0,0.00612,0.00955,73.0,70.4,17,453,0,79.3,17.29,0.00,0.00
15min,AgWx,beryljct,423,13SEP2018:16:45:00,81.5,13.46,78.8,78.4,78.9,79.3,78.2,9.5,12,8.4,0.355,16.5,21.3,13.8,14.6,17.8,181,9.7,24.9,0.00550,0.00879,73.2,70.5,17,366,0,79.2,17.29,0.00,0.00
15min,AgWx,beryljct,423,13SEP2018:17:00:00,80.6,13.52,77.3,76.7,77.5,78.3,76.7,11,13,8.9,0.376,17.9,22.3,14.2,15.67,17.6,193,13,23.2,0.00472,0.00786,73.3,70.6,17,257,0,77.1,17.29,0.00,0.00
15min,AgWx,beryljct,423,13SEP2018:17:15:00,79.9,13.51,77.6,77.9,77.5,78.2,76.7,11,13,9.5,0.325,18.3,22.4,15.7,15.67,16.5,188,10,23.5,0.00475,0.00775,73.4,70.7,17,293,0,77.5,17.29,0.00,0.00
15min,AgWx,beryljct,423,13SEP2018:17:30:00,79.5,13.51,77.0,77.0,77.1,78.1,76.5,11,13,8.8,0.330,17.8,21.6,14.2,15.1,18.0,193,9.6,24.5,0.00474,0.00790,73.4,70.8,17,254,0,77.0,17.29,0.00,0.00
15min,AgWx,beryljct,423,13SEP2018:17:45:00,78.9,13.52,76.8,76.5,76.9,77.3,76.3,11,12,9.8,0.343,17.5,20.0,16.0,15.59,18.0,190,8.4,25.2,0.00446,0.00760,73.5,70.9,17,205,0,76.6,17.29,0.00,0.00
15min,AgWx,beryljct,423,13SEP2018:18:00:00,78.3,13.55,76.0,75.9,76.1,76.7,75.4,11,13,9.9,0.340,18.0,20.8,15.9,20.85,17.3,192,8.2,24.3,0.00216,0.00260,73.5,71.0,17,159,0,75.5,17.29,0.00,0.00
15min,AgWx,beryljct,423,13SEP2018:18:15:00,77.4,13.33,75.3,75.0,75.4,75.9,74.9,12,13,11,0.363,18.4,20.6,16.8,12.32,15.4,194,6.7,21.7,0.00195,0.00239,73.5,71.1,17,111,0,74.0,17.29,0.00,0.00
15min,AgWx,beryljct,423,13SEP2018:18:30:00,76.4,13.25,74.7,74.5,74.8,75.2,74.4,11,12,11,0.325,17.6,19.1,16.2,15.52,14.4,190,7.0,19.6,0.00179,0.00222,73.4,71.1,17,73,0,72.8,17.29,0.00,0.00
15min,AgWx,beryljct,423,13SEP2018:18:45:00,75.1,13.17,73.4,73.1,73.6,74.7,72.9,12,13,11,0.329,17.6,18.8,16.1,12.89,11.3,196,6.9,16.9,0.00142,0.00182,73.4,71.2,17,18,0,71.0,17.29,0.00,0.00
15min,AgWx,beryljct,423,13SEP2018:19:00:00,73.9,13.16,72.9,72.7,72.9,73.3,72.6,12,13,11,0.320,17.0,18.3,15.7,11.75,10.6,199,7.3,14.3,0.00131,0.00171,73.3,71.3,17,4,0,69.8,17.29,0.00,0.00
15min,AgWx,beryljct,423,13SEP2018:19:15:00,73.0,13.15,72.8,72.6,72.8,73.1,72.3,11,12,11,0.313,15.9,17.5,14.6,10.28,12.1,201,8.4,16.4,0.00142,0.00182,73.1,71.3,17,0,0,69.7,17.29,0.00,0.00
15min,AgWx,beryljct,423,13SEP2018:19:30:00,72.3,13.14,72.2,72.0,72.2,72.8,71.9,11,12,11,0.306,15.6,17.0,14.5,11.55,11.0,198,7.2,14.4,0.00132,0.00170,73.0,71.4,17,0,0,69.1,17.30,0.00,0.00
15min,AgWx,beryljct,423,13SEP2018:19:45:00,71.7,13.12,71.8,71.4,71.8,72.3,71.3,12,12,11,0.318,15.6,16.4,14.7,11.84,11.5,197,6.4,14.4,0.00135,0.00173,72.8,71.4,17,0,0,68.8,17.29,0.00,0.00
15min,AgWx,beryljct,423,13SEP2018:20:00:00,71.3,13.11,72.0,72.4,71.8,72.4,71.4,12,12,11,0.306,15.5,16.3,14.6,14.58,13.0,199,8.2,19.3,0.00146,0.00183,72.6,71.5,17,0,0,69.0,17.30,0.00,0.00
15min,AgWx,beryljct,423,13SEP2018:20:15:00,71.3,13.11,72.4,72.3,72.4,72.6,72.1,11,12,11,0.296,15.5,16.6,14.7,16.44,14.3,202,8.4,19.6,0.00156,0.00194,72.4,71.5,17,0,0,69.6,17.30,0.00,0.00
15min,AgWx,beryljct,423,13SEP2018:20:30:00,71.3,13.1,72.4,72.3,72.3,72.5,72.0,11,11,10,0.285,14.6,15.7,13.1,17.54,14.8,200,7.0,19.1,0.00160,0.00198,72.2,71.5,17,0,0,69.6,17.29,0.00,0.00
15min,AgWx,beryljct,423,13SEP2018:20:45:00,71.3,13.1,72.3,72.1,72.3,72.6,72.0,11,11,10,0.288,14.0,14.9,12.9,12.47,14.8,201,8.4,20.2,0.00161,0.00199,72.0,71.5,17,0,0,69.7,17.30,0.00,0.00
15min,AgWx,beryljct,423,13SEP2018:21:00:00,71.2,13.1,71.8,71.8,71.8,72.2,71.3,11,11,10,0.289,13.6,14.7,12.5,12.34,13.8,200,6.5,18.7,0.00153,0.00190,71.8,71.5,17,0,0,69.0,17.30,0.00,0.00
15min,AgWx,beryljct,423,13SEP2018:21:15:00,71.1,13.1,71.9,71.9,71.9,72.1,71.6,11,11,10,0.288,14.1,15.1,13.4,14.45,14.1,201,8.5,18.4,0.00154,0.00192,71.6,71.5,17,0,0,69.2,17.29,0.00,0.00
15min,AgWx,beryljct,423,13SEP2018:21:30:00,70.8,13.08,71.4,71.1,71.5,71.9,71.1,11,12,11,0.295,14.4,15.4,13.5,10.52,12.6,200,7.7,17.2,0.00143,0.00180,71.4,71.5,17,0,0,68.6,17.29,0.00,0.00
15min,AgWx,beryljct,423,13SEP2018:21:45:00,70.4,13.08,70.9,70.7,70.8,71.2,70.4,12,12,11,0.293,14.9,16.2,13.9,11.22,11.5,198,7.6,16.1,0.00132,0.00169,71.2,71.5,17,0,0,67.9,17.30,0.00,0.00
15min,AgWx,beryljct,423,13SEP2018:22:00:00,69.9,13.08,70.4,70.2,70.4,70.8,70.2,12,13,12,0.310,15.6,16.4,14.7,13.24,11.2,196,7.1,17.5,0.00127,0.00163,71.0,71.4,17,0,0,67.5,17.30,0.00,0.00
15min,AgWx,beryljct,423,13SEP2018:22:15:00,69.5,13.07,70.2,70.3,70.1,70.4,69.9,12,13,12,0.319,16.0,17.2,15.0,11.36,11.4,195,7.1,16.4,0.00128,0.00164,70.8,71.0,16,0,0,67.3,17.30,0.00,0.00
15min,AgWx,beryljct,423,13SEP2018:22:30:00,69.2,13.07,69.8,69.5,69.8,70.3,69.4,13,14,12,0.330,16.6,17.6,15.8,11.86,11.1,198,7.0,15.7,0.00124,0.00159,70.7,71.4,17,0,0,67.0,17.30,0.00,0.00
15min,AgWx,beryljct,423,13SEP2018:22:45:00,68.9,13.06,69.5,69.3,69.4,69.8,69.1,13,14,13,0.321,17.0,17.7,16.2,13.99,11.5,196,7.2,14.8,0.00125,0.00159,70.5,70.9,16,0,0,66.6,17.30,0.00,0.00
15min,AgWx,beryljct,423,13SEP2018:23:00:00,68.5,13.06,69.4,69.6,69.3,69.7,68.9,14,14,13,0.342,17.5,18.3,16.8,9.43,11.2,196,7.6,15.4,0.00123,0.00157,70.3,71.3,17,0,0,66.6,17.30,0.00,0.00
15min,AgWx,beryljct,423,13SEP2018:23:15:00,67.3,13.05,61.5,58.2,62.8,69.9,58.2,25,35,13,0.531,25.0,30.5,17.2,5.261,7.9,168,15,14.7,0.00073,0.00097,70.1,71.2,17,0,0,60.6,17.29,0.00,0.00
15min,AgWx,bigpiney,439,13SEP2018:00:00:00,45.2,12.75,41.6,41.8,40.4,42.3,38.5,45,49,40,0.371,20.5,21.1,19.8,2.916,3.1,245,29,6.6,0.00008,0.00014,49.9,50.0,35,0,0,0.0,.,0.00,0.00
15min,AgWx,bigpiney,439,13SEP2018:00:15:00,44.6,12.74,40.8,39.5,39.8,41.8,38.8,45,47,41,0.375,20.2,20.6,19.8,3.573,3.0,223,9.9,4.3,0.00008,0.00013,49.9,50.0,35,0,0,0.0,.,0.00,0.00
15min,AgWx,bigpiney,439,13SEP2018:00:30:00,43.9,12.73,39.2,38.1,41.3,42.9,37.6,41,51,38,0.392,19.3,21.3,18.7,4.319,1.9,214,28,4.3,0.00000,0.00003,49.8,50.0,35,0,0,0.0,.,0.00,0.00
15min,AgWx,bigpiney,439,13SEP2018:00:45:00,43.4,12.72,38.7,38.8,40.5,41.5,38.3,45,50,42,0.390,20.8,21.4,20.2,5.393,4.8,205,11,6.6,0.00017,0.00024,49.7,50.0,35,0,0,0.0,.,0.00,0.00
15min,AgWx,bigpiney,439,13SEP2018:01:00:00,42.8,12.72,35.4,35.3,37.8,40.2,35.2,52,59,45,0.412,21.5,22.5,20.4,5.217,4.9,206,8.7,5.9,0.00014,0.00019,49.6,50.0,35,0,0,0.0,.,0.00,0.00
15min,AgWx,bigpiney,439,13SEP2018:01:15:00,41.9,12.7,38.7,38.6,36.0,39.2,32.8,56,64,45,0.368,21.4,22.5,19.6,1.315,2.8,271,44,5.5,0.00003,0.00005,49.5,50.0,35,0,0,0.0,.,0.00,0.00
15min,AgWx,bigpiney,439,13SEP2018:01:30:00,41.3,12.7,37.3,37.8,38.8,40.7,36.8,46,50,42,0.361,19.8,20.5,19.1,3.266,2.4,317,49,4.1,0.00003,0.00006,49.5,50.0,35,0,0,0.0,.,0.00,0.00
15min,AgWx,bigpiney,439,13SEP2018:01:45:00,40.9,12.67,35.5,34.3,35.2,37.7,34.1,54,56,47,0.376,20.1,20.6,19.4,1.929,3.0,321,45,4.8,0.00004,0.00007,49.4,50.0,35,0,0,0.0,.,0.00,0.00
15min,AgWx,bigpiney,439,13SEP2018:02:00:00,40.2,12.66,37.1,36.3,35.6,36.3,34.3,54,56,50,0.360,20.4,21.2,19.3,3.836,2.2,244,36,4.4,-0.00001,0.00001,49.3,50.0,35,0,0,0.0,.,0.00,0.00
15min,AgWx,bigpiney,439,13SEP2018:02:15:00,39.5,12.66,35.6,35.1,34.9,37.1,33.5,57,63,48,0.403,21.1,22.5,19.1,4.165,4.2,219,6.3,5.7,0.00008,0.00012,49.2,49.9,35,0,0,0.0,.,0.00,0.00
15min,AgWx,bigpiney,439,13SEP2018:02:30:00,38.7,12.64,31.6,32.5,33.7,35.4,32.5,63,67,58,0.414,22.4,23.1,21.9,4.976,4.8,217,6.0,7.4,0.00007,0.00010,49.1,49.9,35,0,0,0.0,.,0.00,0.00
15min,AgWx,bigpiney,439,13SEP2018:02:45:00,38.0,12.64,33.7,32.7,32.3,33.2,31.5,67,69,65,0.427,22.7,23.3,22.3,5.086,4.1,236,20,7.5,0.00003,0.00005,49.0,49.9,35,0,0,0.0,.,0.00,0.00
15min,AgWx,bigpiney,439,13SEP2018:03:00:00,37.4,12.63,32.2,31.7,32.0,34.2,30.9,68,71,63,0.408,22.8,23.5,22.2,5.02,4.5,225,6.6,7.0,0.00004,0.00006,48.9,49.9,35,0,0,0.0,.,0.00,0.00
15min,AgWx,bigpiney,439,13SEP2018:03:15:00,36.9,12.61,36.1,35.0,31.8,35.0,30.1,67,72,55,0.378,22.1,23.0,20.4,3.88,3.8,240,11,5.7,0.00002,0.00004,48.9,49.8,35,0,0,0.0,.,0.00,0.00
15min,AgWx,bigpiney,439,13SEP2018:03:30:00,36.2,12.61,33.4,32.2,34.8,37.4,32.2,55,62,48,0.375,20.3,21.3,19.4,3.814,3.3,235,7.4,4.3,0.00005,0.00008,48.8,49.8,35,0,0,0.0,.,0.00,0.00
15min,AgWx,bigpiney,439,13SEP2018:03:45:00,35.6,12.59,30.8,31.5,33.4,35.5,31.5,56,61,52,0.359,19.6,20.4,19.0,5.239,5.1,245,4.4,6.0,0.00010,0.00014,48.7,49.8,35,0,0,0.0,.,0.00,0.00
15min,AgWx,bigpiney,439,13SEP2018:04:00:00,35.1,12.58,30.0,29.6,30.0,31.5,29.3,64,67,60,0.364,19.5,19.8,19.2,3.727,4.4,241,4.7,5.2,0.00005,0.00007,48.6,49.8,35,0,0,0.0,.,0.00,0.00
15min,AgWx,bigpiney,439,13SEP2018:04:15:00,34.6,12.56,29.3,29.0,29.0,29.7,28.3,67,70,65,0.361,19.4,19.9,19.0,4.056,3.6,242,7.7,4.1,0.00001,0.00003,48.5,49.8,35,0,0,0.0,.,0.00,0.00
15min,AgWx,bigpiney,439,13SEP2018:04:30:00,34.1,12.55,31.2,29.7,28.9,30.1,28.0,67,69,64,0.366,19.3,20.2,18.8,0,1.8,231,19,4.0,-0.00005,-0.00006,48.4,49.7,35,0,0,0.0,.,0.00,0.00
15min,AgWx,bigpiney,439,13SEP2018:04:45:00,33.4,12.53,30.2,30.3,29.6,30.3,28.3,64,69,60,0.342,19.0,20.0,18.1,1.688,0.8,162,49,1.7,-0.00011,-0.00016,48.3,49.8,35,0,0,0.0,.,0.00,0.00
15min,AgWx,bigpiney,439,13SEP2018:05:00:00,32.8,12.52,25.9,26.5,29.1,31.7,26.3,63,71,57,0.343,18.0,19.2,16.7,3.595,3.7,208,6.8,5.3,0.00003,0.00005,48.2,49.7,35,0,0,0.0,.,0.00,0.00
15min,AgWx,bigpiney,439,13SEP2018:05:15:00,32.1,12.51,26.5,25.4,25.3,26.5,24.7,75,78,70,0.365,18.6,19.6,17.7,4.889,3.8,212,8.3,5.1,-0.00001,0.00000,48.1,49.7,35,0,0,0.0,.,0.00,0.00
15min,AgWx,bigpiney,439,13SEP2018:05:30:00,31.4,12.5,27.1,26.4,26.3,27.0,25.5,73,78,71,0.347,18.9,20.2,18.0,4.669,4.5,230,7.9,5.4,0.00001,0.00003,48.0,49.7,35,0,0,0.0,.,0.00,0.00
15min,AgWx,bigpiney,439,13SEP2018:05:45:00,31.0,12.49,27.0,25.7,25.7,26.7,24.1,73,77,70,0.357,18.1,19.1,17.2,5.59,5.3,222,8.1,5.9,0.00003,0.00005,47.9,49.7,35,0,0,0.0,.,0.00,0.00
15min,AgWx,bigpiney,439,13SEP2018:06:00:00,30.7,12.49,28.4,28.5,27.1,28.7,25.8,69,75,65,0.343,18.4,19.1,18.1,4.428,4.9,235,8.7,6.0,0.00004,0.00006,47.8,49.7,35,3,0,0.0,.,0.00,0.00
15min,AgWx,bigpiney,439,13SEP2018:06:15:00,30.8,12.49,33.8,32.2,29.2,32.2,27.7,64,67,56,0.347,18.5,19.1,18.0,2.587,4.1,267,9.7,5.6,-0.00010,0.00004,47.7,49.6,35,16,0,0.0,.,0.00,0.00
15min,AgWx,bigpiney,439,13SEP2018:06:30:00,31.3,12.53,32.2,31.8,33.5,34.9,31.8,53,59,49,0.358,18.0,19.1,17.4,3.069,1.3,246,36,4.1,-0.00014,-0.00007,47.6,49.6,35,50,0,0.0,.,0.00,0.00
15min,AgWx,bigpiney,439,13SEP2018:06:45:00,32.1,12.56,31.3,31.2,32.0,33.4,30.9,62,70,57,0.412,20.4,22.5,19.3,5.437,3.7,199,11,5.7,0.00015,0.00031,47.5,49.5,35,89,0,0.0,.,0.00,0.00
15min,AgWx,bigpiney,439,13SEP2018:07:00:00,33.0,12.71,35.8,34.8,32.5,34.8,31.1,70,71,66,0.451,23.7,24.8,22.4,4.231,4.7,205,9.0,5.6,0.00031,0.00048,47.4,49.6,35,131,0,0.0,.,0.00,0.00
15min,AgWx,bigpiney,439,13SEP2018:07:15:00,34.4,13.06,40.6,39.4,37.3,39.4,35.0,63,66,61,0.517,25.9,27.9,24.6,0,2.7,211,15,4.7,0.00050,0.00066,47.4,49.5,35,177,0,0.0,.,0.00,0.00
15min,AgWx,bigpiney,439,13SEP2018:07:30:00,36.4,13.51,42.8,42.5,41.0,42.6,39.5,60,63,56,0.518,28.1,29.3,27.0,0.022,0.1,20,10,1.2,0.00064,0.00069,47.3,49.5,35,224,0,0.0,.,0.00,0.00
15min,AgWx,bigpiney,439,13SEP2018:07:45:00,39.2,13.76,45.3,44.8,43.4,44.8,42.4,50,56,47,0.491,26.2,27.9,25.0,0,0.1,335,23,1.1,0.00092,0.00098,47.2,49.5,35,272,0,0.0,.,0.00,0.00
15min,AgWx,bigpiney,439,13SEP2018:08:00:00,42.5,14.36,46.3,45.8,45.4,46.1,44.5,47,49,45,0.470,26.2,28.1,25.0,1.008,0.9,49,33,2.9,0.00128,0.00144,47.1,49.4,35,323,0,0.0,.,0.00,0.00
15min,AgWx,bigpiney,439,13SEP2018:08:15:00,45.8,14.61,47.4,47.6,46.5,47.6,45.8,42,46,39,0.484,24.9,26.6,22.6,1.973,1.8,34,28,4.7,0.00164,0.00191,47.0,49.4,35,372,0,0.0,.,0.00,0.00